Flag for Turkey Weather past 2 weeks in Bursa, Turkey

Now
74 °F

Partly sunny.


Feels Like: 77 °F
Forecast: 58 / 85 °F
Wind: 3 mph from Northwest

Location: Bursa

Current Time: Sep 21, 2014 at 7:05:30 PM

Latest Report: Sep 21, 2014 at 6:00 PM


Visibility: 9 mi

Pressure: 29.93 "Hg

Humidity: 59%

Dew point: 59 °F

Location of BursaLocation

Historic Weather in Bursa — Graph

°F

Bursa temperature yesterday

Maximum temperature yesterday: 76 °F (at 3:00 PM)
Minimum temperature yesterday: 54 °F (at 7:00 AM)
Average temperature yesterday: 64 °F

Past Weeks' High & Low Weather Summary

 TemperatureHumidityPressure
High85 °F (Sep 13, 4:00 PM)100% (Sep 19, 6:00 AM)30.22 "Hg (Sep 19, 6:00 AM)
Low54 °F (Sep 20, 7:00 AM)28% (Sep 12, 5:00 PM)29.72 "Hg (Sep 6, 5:00 PM)
Average71 °F75%29.95 "Hg
* Reported Sep 6 5:00 PM — Sep 21 5:00 PM, Bursa, Weather by CustomWeather, © 2014

Note: Actual official high and low records may vary slightly from our data, if they occured in-between our weather recording intervals... More about our weather records

Advertising

Bursa weather history for previous 24 hours

 ConditionsComfort  
Time TempWeatherWind HumidityBarometerVisibility
5:00 PM
Sep 21
76 °FPartly sunny.1 mph53%29.93 "Hg9 mi
4:00 PM77 °FPartly sunny.1 mph49%29.94 "Hg9 mi
3:00 PM75 °FPartly sunny.2 mph50%29.96 "Hg9 mi
2:00 PM74 °FPartly sunny.3 mph58%29.97 "Hg9 mi
1:00 PM72 °FPartly sunny.1 mph58%29.99 "Hg9 mi
12:00 PM69 °FPartly sunny.2 mph64%30.01 "Hg9 mi
11:00 AM67 °FPartly sunny.2 mph68%30.01 "Hg7 mi
10:00 AM65 °FPartly sunny.2 mph76%30.02 "Hg7 mi
9:00 AM60 °FPartly sunny.2 mph87%30.02 "Hg7 mi
8:00 AM58 °FPartly sunny.1 mph93%30.03 "Hg7 mi
7:00 AM56 °FPartly sunny.1 mph96%30.04 "Hg7 mi
6:00 AM57 °FPassing clouds.1 mph95%30.04 "Hg9 mi
5:00 AM57 °FPassing clouds.1 mph95%30.05 "Hg9 mi
3:00 AM57 °FClear.1 mph94%30.04 "Hg9 mi
2:00 AM58 °FClear.1 mph93%30.06 "Hg9 mi
1:00 AM60 °FClear.1 mph91%30.06 "Hg9 mi
12:00 AM60 °FClear.1 mph90%30.07 "Hg12 mi
11:00 PM
Sep 20
62 °FClear.1 mph86%30.09 "Hg12 mi
10:00 PM64 °FPassing clouds.1 mph80%30.10 "Hg12 mi
9:00 PM65 °FPassing clouds.1 mph79%30.11 "Hg12 mi
8:00 PM67 °FPassing clouds.3 mph74%30.11 "Hg12 mi
Weather by CustomWeather, © 2014

See weather overviewHow to use our weather pages